Regional Weather Roundup
Issued by NWS

Home | Current Version | Previous Version | Text Only | Print | Product List | Glossary Off
Versions: 1 2 3 4 5 6 7 8 9 10 11 12 13 14 15 16 17 18 19 20 21 22 23 24 25 26 27 28 29 30 31 32 33 34 35 36 37 38 39 40 41 42 43 44 45 46 47 48 49 50

000
ASUS44 KMEG 171810
RWRTN
TENNESSEE HOURLY STATE WEATHER ROUNDUP
NATIONAL WEATHER SERVICE MEMPHIS TN
1200 PM CST SUN DEC 17 2017

TNZ002-004-019-021-049-052-054-088>092-171900-
WEST TENNESSEE

CITY           SKY/WX    TMP DP  RH WIND       PRES   REMARKS
MEMPHIS INTL   CLOUDY    47  44  90 SE6       30.10F
NWS MEMPHIS      N/A     47 N/A N/A MISG        N/A
JACKSON        CLOUDY    46  43  89 SE3       30.11F
DYERSBURG      CLOUDY    48  43  82 VRB7      30.12R
SOMERVILLE     CLOUDY    46  45  93 CALM      30.09F
COVINGTON      CLOUDY    46  43  87 S5        30.11S
UNION CITY     CLOUDY    46  43  87 S5        30.11S
BOLIVAR        CLOUDY    46  45  93 SE3       30.10F FOG
PARIS          CLOUDY    45  43  93 SE8       30.08F
HUNTINGDON     CLOUDY    46  43  87 SE6       30.10F
LEXINGTON      CLOUDY    45  43  93 NE3       30.12F FOG
SELMER         CLOUDY    46  45  93 SE5       30.09F FOG
SAVANNAH       CLOUDY    46  45  93 VRB6      30.10S FOG
$$

TNZ008-025-027-028-033-062-065-066-171900-
NORTH MIDDLE TENNESSEE

CITY           SKY/WX    TMP DP  RH WIND       PRES   REMARKS
NASHVILLE      CLOUDY    46  39  76 S7        30.14S
PORTLAND       PTSUNNY   43  39  87 VRB6      30.16R FOG
CLARKSVILLE    CLOUDY    43  40  89 CALM      30.14F FOG
SMYRNA         PTSUNNY   46  39  76 S8        30.15R
COOKEVILLE     PTSUNNY   45  39  81 S14G20    30.08F
GALLATIN       CLOUDY    46  39  76 VRB5      30.17S
CROSSVILLE     LGT RAIN  40  33  76 S8        30.14F WCI  34
$$

TNZ061-075-076-078-094-096-097-171900-
SOUTH MIDDLE TENNESSEE

CITY           SKY/WX    TMP DP  RH WIND       PRES   REMARKS
FAYETTEVILLE   MOSUNNY   43  43 100 S21G28    30.09F
TULLAHOMA      PTSUNNY   43  41  93 S16G25    30.10F FOG
WINCHESTER     CLOUDY    43  39  87 SE14      30.15F
MCMINNVILLE    MOSUNNY   43  39  87 VRB6G12   30.11F
COLUMBIA       CLOUDY    46  43  87 S7        30.10F
SHELBYVILLE    PTSUNNY   45  41  87 SE12G20   30.11F
$$

TNZ017-018-042-046-047-171900-
NORTHEAST TENNESSEE

CITY           SKY/WX    TMP DP  RH WIND       PRES   REMARKS
TRI CITIES     CLOUDY    39  31  72 CALM      30.19F
ELIZABETHTON   PTSUNNY   43  28  56 CALM      30.18F
$$

TNZ012-013-036-069-073-074-171900-
CENTRAL EAST TENNESSEE

CITY           SKY/WX    TMP DP  RH WIND       PRES   REMARKS
KNOXVILLE      LGT RAIN  41  35  79 CALM      30.18F
OAK RIDGE      LGT RAIN  42  35  76 CALM      30.21F
DOWNTOWN KNOXV MOSUNNY   43  34  70 CALM      30.20F
GATLINBURG     CLOUDY    43  30  61 CALM      30.20F
MORRISTOWN     CLOUDY    43  32  65 CALM      30.17F
JACKSBORO      PTSUNNY   39  36  87 CALM      30.22F
$$

TNZ083-085-099-171900-
SOUTHEAST TENNESSEE

CITY           SKY/WX    TMP DP  RH WIND       PRES   REMARKS
CHATTANOOGA    LGT RAIN  42  34  73 W6        30.26R
DAYTON         CLOUDY    43  37  81 W6        30.23R
$$

SKY/WX REPORTED AS FAIR MEANS FEW OR NO CLOUDS BELOW
12 THOUSAND FEET.




USA.gov is the U.S. government's official web portal to all federal, state and local government web resources and services.